Location: Gadern
(49.5873°N, 8.8138°E)
Time: 06:51:47
(UTC+00:00)

Okean O Rocket - Pass Details

Date: 19 May 2025
Orbit: 614 x 636 km, 98.0° (Epoch: 14 June)

Event Time Altitude Azimuth Distance (km) Brightness Sun altitude
Exits shadow 19:57:25 - 172° (S) 2,704 4.4 -7.1°
Reaches altitude 10° 19:59:07 10° 174° (S) 2,000 3.7 -7.3°
Maximum altitude 20:03:28 68° 258° (WSW) 677 1.9 -7.8°
Drops below altitude 10° 20:07:48 10° 341° (NNW) 2,002 5.3 -8.3°
Sets 20:10:01 0° 344° (NNW) 2,910 6.2 -8.6°
